Back to catalog

DELTA 1 DEB

AliveSSO
NORAD 10655·DEBRIS·🇺🇸 United States

Launched Jul 29, 1976 from Vandenberg Space Force Base

Loading…

Next Passes (next 24 hours)

TLE

FreshSource: Space-Track

Epoch: Sep 14, 2026, 06:26 UTC

1 10655U 76077R   26257.26806084  .00000187  00000-0  22360-2 0  9991
2 10655 102.7656 351.6743 0274434 322.8254  54.3836 12.11406150217049

Track DELTA 1 DEB in real time with AllMySat

Download on the App Store